Flag for U.S.A. Weather past 2 weeks in Plano, Texas, U.S.A.

Now
81 °F

Clear.


Feels Like: 85 °F
Forecast: 77 / 94 °F
Wind: N/A

Location: McKinney Municipal Airport

Current Time: Aug 21, 2014 at 1:59:55 AM

Latest Report: Aug 21, 2014 at 12:53 AM


Visibility: 10 mi

Pressure: 29.95 "Hg

Humidity: 72%

Dew point: 71 °F

Location of PlanoLocation

Historic Weather in Plano — Graph

°F

Plano temperature yesterday

Maximum temperature yesterday: 95 °F (at 3:53 PM)
Minimum temperature yesterday: 77 °F (at 3:53 AM)
Average temperature yesterday: 85 °F

Past Weeks' High & Low Weather Summary

 TemperatureHumidityPressure
High101 °F (Aug 8, 3:53 PM)97% (Aug 18, 2:53 AM)30.11 "Hg (Aug 18, 2:53 AM)
Low62 °F (Aug 13, 5:53 AM)26% (Aug 12, 2:53 PM)29.78 "Hg (Aug 7, 6:53 PM)
Average83 °F64%29.94 "Hg
* Reported Aug 5 11:53 PM — Aug 20 11:53 PM, Plano, Weather by CustomWeather, © 2014

Note: Actual official high and low records may vary slightly from our data, if they occured in-between our weather recording intervals... More about our weather records

Advertising

Plano weather history for previous 24 hours

 ConditionsComfort  
Time TempWeatherWind HumidityBarometerVisibility
11:53 PM
Aug 20
82 °FClear.16 mph67%29.94 "Hg10 mi
10:53 PM83 °FClear.14 mph63%29.93 "Hg10 mi
9:53 PM85 °FClear.13 mph63%29.92 "Hg10 mi
8:53 PM86 °FSunny.7 mph57%29.89 "Hg10 mi
7:53 PM89 °FSunny.12 mph52%29.88 "Hg10 mi
6:53 PM92 °FSunny.15 mph47%29.87 "Hg10 mi
5:53 PM93 °FSunny.16 mph42%29.87 "Hg10 mi
4:53 PM94 °FSunny.17 mph41%29.87 "Hg10 mi
3:53 PM95 °FSunny.16 mph40%29.89 "Hg10 mi
2:53 PM93 °FSunny.15 mph46%29.91 "Hg10 mi
1:53 PM92 °FSunny.16 mph49%29.93 "Hg10 mi
12:53 PM91 °FSunny.16 mph52%29.95 "Hg10 mi
11:53 AM88 °FPassing clouds.22 mph57%29.96 "Hg10 mi
10:53 AM87 °FScattered clouds.17 mph63%29.96 "Hg10 mi
9:53 AM84 °FPassing clouds.18 mph70%29.96 "Hg10 mi
8:53 AM80 °FPartly sunny.15 mph79%29.95 "Hg10 mi
7:53 AM78 °FPartly sunny.13 mph82%29.94 "Hg10 mi
6:53 AM77 °FClear.8 mph85%29.92 "Hg10 mi
5:53 AM78 °FClear.8 mph76%29.90 "Hg10 mi
4:53 AM79 °FClear.N/A74%29.88 "Hg10 mi
3:53 AM77 °FPassing clouds.9 mph82%29.87 "Hg10 mi
2:53 AM78 °FPassing clouds.N/A79%29.88 "Hg10 mi
1:53 AM78 °FClear.12 mph76%29.88 "Hg10 mi
Weather by CustomWeather, © 2014

See weather overviewHow to use our weather pages